ORANGE GROVE, NALF, TX

4:18 PM CDT on March 26, 2017 (GMT -0500)
Orange Grove Naval Air Landing Field

Weather History for KNOG - August, 2014

Change the Weather History Date:

Wednesday, August 13, 2014

  Actual Average (KALI) Record (KALI)
Temperature  
Mean Temperature 86 °F -  
Max Temperature 99 °F 95 °F 105 °F (1998)
Min Temperature 75 °F 73 °F 64 °F (2004)
Cooling Degree Days 22    
Growing Degree Days 36 (Base 50)    
Moisture  
Dew Point 70 °F    
Average Humidity 62    
Maximum Humidity 90    
Minimum Humidity 36    
Precipitation  
Precipitation 0.00 in - - ()
Sea Level Pressure  
Sea Level Pressure 29.95 in    
Wind  
Wind Speed 5 mph (NE)    
Max Wind Speed 14 mph    
Max Gust Speed -    
Visibility 10 miles    
Events      
Averages and records for this station are not official NWS values.
T = Trace of Precipitation, MM = Missing Value Source: NWS Daily Summary

Daily Weather History Graph

Daily Weather History Graph

Search for Another Location

Airport or City:

Trip Planner

Search our weather history database for the weather conditions in past years. The results will help you decide how hot, cold, wet, or windy it might be!

Date:

Astronomy

Aug. 13, 2014 Rise Set
Actual Time 7:01 AM CDT 8:12 PM CDT
Civil Twilight 6:36 AM CDT 8:36 PM CDT
Nautical Twilight 6:07 AM CDT 9:06 PM CDT
Astronomical Twilight 5:37 AM CDT 9:36 PM CDT
Moon 10:23 PM CDT (8/13) 10:09 AM CDT (8/13)
Length of Visible Light 14h 00m
Length of Day
13h 10m
Waning Gibbous, 87% of the Moon is Illuminated
Aug 13
Waning Gibbous
Aug 17
Last Quarter
Aug 25
New
Sep 2
First Quarter
Sep 8
Full

Hourly Weather History & Observations

Time (CDT) Temp. Heat Index Dew Point Humidity Pressure Visibility Wind Dir Wind Speed Gust Speed Precip Events Conditions
12:56 AM 78.1 °F - 73.9 °F 87% 29.96 in 10.0 mi WSW 4.6 mph - N/A   Clear
1:56 AM 79.0 °F - 72.0 °F 79% 29.95 in 10.0 mi Calm Calm - N/A   Clear
2:56 AM 78.1 °F - 72.0 °F 81% 29.95 in 10.0 mi NNE 6.9 mph - N/A   Clear
3:56 AM 77.0 °F - 72.0 °F 84% 29.94 in 10.0 mi NE 5.8 mph - N/A   Clear
4:56 AM 75.9 °F - 72.0 °F 87% 29.94 in 10.0 mi NNE 5.8 mph - N/A   Clear
5:56 AM 75.9 °F - 72.0 °F 87% 29.96 in 10.0 mi North 3.5 mph - N/A   Clear
6:56 AM 75.0 °F - 72.0 °F 90% 29.97 in 10.0 mi North 4.6 mph - N/A   Clear
7:56 AM 78.1 °F - 73.0 °F 84% 29.98 in 10.0 mi NNW 3.5 mph - N/A   Clear
8:56 AM 82.9 °F 88.0 °F 72.0 °F 69% 30.00 in 10.0 mi North 4.6 mph - N/A   Partly Cloudy
10:56 AM 91.0 °F 98.2 °F 72.0 °F 53% 29.99 in 10.0 mi Variable 4.6 mph - N/A   Clear
11:56 AM 93.0 °F 99.0 °F 70.0 °F 47% 29.99 in 10.0 mi Variable 3.5 mph - N/A   Clear
12:56 PM 95.0 °F 101.3 °F 70.0 °F 44% 29.97 in 10.0 mi East 3.5 mph - N/A   Clear
1:41 PM 97.0 °F 102.2 °F 68.0 °F 39% 30.01 in 1.5 mi NE 8.1 mph - N/A   Haze
1:49 PM 98.1 °F 102.4 °F 66.9 °F 36% 30.01 in 10.0 mi ENE 5.8 mph - N/A   Partly Cloudy
1:56 PM 98.1 °F 102.4 °F 66.9 °F 36% 29.95 in 10.0 mi Calm Calm - N/A   Partly Cloudy
2:56 PM 98.1 °F 102.4 °F 66.9 °F 36% 29.92 in 10.0 mi Calm Calm - N/A   Mostly Cloudy
3:56 PM 91.9 °F 95.4 °F 66.9 °F 44% 29.90 in 10.0 mi NNW 13.8 mph - 0.00 in   Partly Cloudy
4:56 PM 87.1 °F 91.3 °F 69.1 °F 55% 29.88 in 10.0 mi West 8.1 mph - N/A   Clear
5:56 PM 91.0 °F 95.6 °F 69.1 °F 48% 29.88 in 10.0 mi South 8.1 mph - N/A   Partly Cloudy
6:56 PM 91.0 °F 95.6 °F 69.1 °F 48% 29.87 in 10.0 mi SSE 11.5 mph - N/A   Clear
7:56 PM 89.1 °F 92.9 °F 68.0 °F 50% 29.88 in 10.0 mi SSE 12.7 mph - N/A   Clear
8:56 PM 84.0 °F 88.4 °F 70.0 °F 63% 29.90 in 10.0 mi SSE 8.1 mph - N/A   Clear
11:56 PM 78.1 °F - 72.0 °F 81% 29.95 in 10.0 mi SSE 6.9 mph - N/A   Clear